COSMOS 533

Satellite information

Favourite Embed

Satellite Type and Status

PAYLOADIN ORBIT

Key statistics

Satellite COSMOS 533 at a glance.

Uptime

19406

Days in orbit

Revolutions

≈ 12.7

Per day

Orbit

LEO

Low Earth Orbit

Inclination

74.0

Latest

Satellite identification and parameters

Extended collection of information and parameters for COSMOS 533.

Object identification

Identified? True

Debris? False

Object name: COSMOS 533

International designator: 1972-087F

Object number (NORAD): 6268

Object ID (CCSDS): 6268

Country: COMMONWEALTH OF INDEPENDENT STATES (CIS)

Current information (Y/N): Y

RCS size: MEDIUM

Orbital parameters

Period: 113.6 minutes

Inclination: 74.0356 deg

SMA: 7769.833 km

Apoapsis: 1467.576 km

Periapsis: 1315.819 km

RAAN: 90.7393 deg

Eccentricy: 0.00976582

Argument of periapsis: 193.7625 deg

Mean anomaly: 276.4665 deg

Mean motion: 12.67608869 rev/day

Mean motion (dot): -0.0000002 rev/day2

B* drag term: -0.000017002857 1/REarth

Two-line elements (TLE)

Creation date: Dec. 19, 2025, 2:08 a.m.

Reference frame: TEME

Reference center: EARTH

Epoch: Dec. 18, 2025, 4:03 p.m. UTC

TLE line 0: 0 COSMOS 533

TLE line 1: 1 06268U 72087F 25352.66910854 -.00000020 00000-0 -17003-4 0 9991

TLE line 2: 2 06268 74.0356 90.7393 0097658 193.7625 276.4665 12.67608869458420

Live tracking on map

Real-time ground track for satellite COSMOS 533.

In-orbit conjunctions

A list of the most updated potential collisions computed for object COSMOS 533.

Target Orbit TCA Probability of collision Miss distance Type
DELTA 1 DEB SSO 2024-06-04 05:29:18 0.0121005 38.0 (m) DEBRIS

Associated space launch

Military communications satellites

COSMOS 533 was lifted into orbit during the mission ‘Kosmos-3M | Strela-1M 33-40’, on board a Kosmos-3M space rocket.

The launch took place on Nov. 1, 1972, 2:08 a.m. from 132/2.

For more information about the launch, click the button.

Launch to space Kosmos-3M | Strela-1M 33-40
Kosmos-3M | Strela-1M 33-40

Agency: N/A

Status: Launch Successful

Launch date: Nov. 1, 1972, 2:08 a.m. UTC

Rocket: Kosmos-3M

Launch pad: 132/2

Location: Plesetsk Cosmodrome, Russian Federation

...

Latest news about this satellite

There are no fresh news available about this satellite. Check back as we update our databases every day.


Newsletter sign-up

Weekly statistics, charts and insights to help you stay on top of the space industry.